STARLINK-5928, 55958

Orbit data source: Space-Track

STARLINK-5928, 55958 is a payload satellite owned by SpaceX/Seattle (US) in LEO that was launched on Fri, 17 Mar 2023 UTC via an FALCON 9 launch vehicle from the Air Force Western Test Range (AFWTR). Payload-class satellites include a variety of spacecraft equipped with specific instruments for various scientific and technological missions. These include communications satellites like Starlink; space stations such as the ISS; scientific satellites like the Hubble; Earth observation satellites from companies like Planet Labs, Umbra, and HawkEye 360; GPS; miniature CubeSats for education and research; and military/defense satellites.

Loading next visibility...
Identifier
55958, 2023-037AW
Orbit
LEO
Country
Flag of USUS
Related business
Manufacturer
SpaceX/Seattle
Mission
Operational Commercial Communications
Bus & Motor
STARLINK, Unknown motor
Mass
305 kg wet, ~290 kg dry
Launch date (UTC)
2023-03-17 (3 years ago)
Launch vehicle
FALCON 9
Launch site
Air Force Western Test Range (AFWTR)
Object type
Payload
Rocket body
Debris
Shape & HBR
Box + 1 Pan, 10.1 m
Radar Cross Section
11.087 m², Large (>1 m²)

Expand to show TLE details & history
Last TLE update: 14 hours ago

TLE from 14 hours ago
0 STARLINK-5928
1 55958U 23037AW  25350.31164835 -.00001312  00000-0 -10219-3 0  9998
2 55958  69.9995 114.6956 0003311 270.7516  89.3264 14.98317178151984
Epoch: 2025-12-16T07:28Z
TLE epoch observation values (Epoch: 2025-12-16T07:28:46.417Z)
Latitude
0.00001°
Longitude
-82.69548°
Altitude
574.493 km
Speed
7.574 km/s
True Right ascension
07h 38m 46s
True Declination
0° 00' 00"
Sunlit
Object was in full shadow at epoch
Visualization orbit readout
Latitude
Unknown
Longitude
Unknown
Altitude
Unknown
Speed
Unknown
Apparent Right ascension
Unknown
Apparent Declination
Unknown
Sunlit
N/A
Visualization observer readout
Local Sidereal Time
20:40:22
Azimuth
Unknown
Elevation
Unknown
Doppler factor
Unknown
Orbital elements
Apogee altitude
572.344 km
Perigee altitude
567.743 km
Semi-major axis
6,948.181 km
Eccentricity
0.00033
Inclination
69.9995°
RAAN
114.6956°
Arg. of periapsis
270.7516°
True anomaly
89.36434°
Mean anomaly
89.3264°
Eccentric anomaly
89.34537°
Mean motion
3.74746 °/min
Orbital period
96.07 mins
BSTAR
-0.00010219
Loading maneuver chart data...
Computing Atmospheric mass density...
Loading historical data...
Loading historical data...
Loading historical data...
Loading historical data...
Loading historical data...
Loading historical data...
Loading historical data...

Documentation

Showing up to 5 results
|